Wetterdaten: Mittwoch, 27.11.2013
Datum Zeit Temperatur Luftfeuchte Luftdruck Regen Wind Richtung Richtung Taupunkt Windchill Windben
27.11.2013 00:00 -6,5 C 89 % 1028,8 hPa 0,0 l/m 0,0 km/h (0 Bft) NO 45 -8,0 C -6,5 C 0,0 km/h (0 Bft)
27.11.2013 00:05 -6,5 C 89 % 1028,9 hPa 0,0 l/m 0,0 km/h (0 Bft) NO 45 -8,0 C -6,4 C 0,0 km/h (0 Bft)
27.11.2013 00:10 -6,6 C 89 % 1028,9 hPa 0,0 l/m 0,0 km/h (0 Bft) O-NO 67 -8,1 C -6,5 C 0,0 km/h (0 Bft)
27.11.2013 00:15 -6,6 C 89 % 1028,9 hPa 0,0 l/m 0,0 km/h (0 Bft) NO 45 -8,1 C -6,5 C 0,0 km/h (0 Bft)
27.11.2013 00:20 -6,6 C 89 % 1028,9 hPa 0,0 l/m 0,0 km/h (0 Bft) NO 45 -8,1 C -6,5 C 1,6 km/h (1 Bft)
27.11.2013 00:25 -6,5 C 89 % 1028,9 hPa 0,0 l/m 1,0 km/h (0 Bft) O-NO 67 -8,0 C -6,5 C 1,6 km/h (1 Bft)
27.11.2013 00:30 -6,4 C 89 % 1028,9 hPa 0,0 l/m 1,0 km/h (0 Bft) O-NO 67 -7,9 C -6,5 C 0,0 km/h (0 Bft)
27.11.2013 00:35 -6,5 C 89 % 1028,9 hPa 0,0 l/m 0,2 km/h (0 Bft) O-NO 67 -8,0 C -6,6 C 0,0 km/h (0 Bft)
27.11.2013 00:40 -6,8 C 89 % 1028,9 hPa 0,0 l/m 0,0 km/h (0 Bft) O-NO 67 -8,3 C -6,6 C 0,0 km/h (0 Bft)
27.11.2013 00:45 -7,3 C 88 % 1028,8 hPa 0,0 l/m 0,0 km/h (0 Bft) O-SO 112 -8,9 C -6,8 C 0,0 km/h (0 Bft)
27.11.2013 00:50 -7,5 C 88 % 1028,8 hPa 0,0 l/m 0,3 km/h (0 Bft) O-SO 112 -9,1 C -7,0 C 2,4 km/h (1 Bft)
27.11.2013 00:55 -7,5 C 88 % 1028,8 hPa 0,0 l/m 0,3 km/h (0 Bft) O 90 -9,1 C -7,2 C 0,0 km/h (0 Bft)
27.11.2013 01:00 -8,1 C 88 % 1028,8 hPa 0,0 l/m 0,3 km/h (0 Bft) SO 135 -9,7 C -7,6 C 0,0 km/h (0 Bft)
27.11.2013 01:05 -8,1 C 88 % 1028,7 hPa 0,0 l/m 1,0 km/h (0 Bft) NO 45 -9,7 C -7,9 C 3,4 km/h (1 Bft)
27.11.2013 01:10 -8,1 C 88 % 1028,7 hPa 0,0 l/m 1,0 km/h (0 Bft) NO 45 -9,7 C -8,0 C 0,0 km/h (0 Bft)
27.11.2013 01:15 -8,5 C 87 % 1028,7 hPa 0,0 l/m 0,6 km/h (0 Bft) O-SO 112 -10,3 C -8,2 C 3,9 km/h (1 Bft)
27.11.2013 01:20 -8,2 C 88 % 1028,7 hPa 0,0 l/m 1,3 km/h (1 Bft) NO 45 -9,8 C -8,3 C 0,0 km/h (0 Bft)
27.11.2013 01:25 -8,3 C 87 % 1028,7 hPa 0,0 l/m 1,6 km/h (1 Bft) O 90 -10,1 C -8,5 C 2,6 km/h (1 Bft)
27.11.2013 01:30 -8,4 C 87 % 1028,7 hPa 0,0 l/m 1,8 km/h (1 Bft) O-SO 112 -10,2 C -8,5 C 3,9 km/h (1 Bft)
27.11.2013 01:35 -8,4 C 88 % 1028,7 hPa 0,0 l/m 1,9 km/h (1 Bft) O-SO 112 -10,0 C -8,8 C 4,0 km/h (1 Bft)
27.11.2013 01:40 -9,0 C 87 % 1028,7 hPa 0,0 l/m 1,0 km/h (0 Bft) O-NO 67 -10,8 C -8,9 C 0,0 km/h (0 Bft)
27.11.2013 01:45 -8,7 C 87 % 1028,6 hPa 0,0 l/m 0,2 km/h (0 Bft) O 90 -10,5 C -9,3 C 0,0 km/h (0 Bft)
27.11.2013 01:50 -8,6 C 87 % 1028,6 hPa 0,0 l/m 0,5 km/h (0 Bft) NO 45 -10,4 C -9,4 C 0,0 km/h (0 Bft)
27.11.2013 01:55 -9,2 C 87 % 1028,6 hPa 0,0 l/m 0,3 km/h (0 Bft) NO 45 -11,0 C -9,3 C 0,0 km/h (0 Bft)
27.11.2013 02:00 -9,2 C 87 % 1028,6 hPa 0,0 l/m 0,0 km/h (0 Bft) O 90 -11,0 C -9,2 C 0,0 km/h (0 Bft)
27.11.2013 02:05 -8,6 C 87 % 1028,7 hPa 0,0 l/m 0,0 km/h (0 Bft) O-NO 67 -10,4 C -8,8 C 0,0 km/h (0 Bft)
27.11.2013 02:10 -7,9 C 88 % 1028,7 hPa 0,0 l/m 0,0 km/h (0 Bft) O-SO 112 -9,5 C -8,6 C 0,0 km/h (0 Bft)
27.11.2013 02:15 -8,7 C 87 % 1028,7 hPa 0,0 l/m 0,0 km/h (0 Bft) O-SO 112 -10,5 C -8,5 C 0,0 km/h (0 Bft)
27.11.2013 02:20 -9,1 C 87 % 1028,7 hPa 0,0 l/m 0,0 km/h (0 Bft) O-SO 112 -10,9 C -8,6 C 0,0 km/h (0 Bft)
27.11.2013 02:25 -9,9 C 86 % 1028,5 hPa 0,0 l/m 0,0 km/h (0 Bft) O-SO 112 -11,8 C -9,0 C 0,0 km/h (0 Bft)
27.11.2013 02:30 -10,2 C 86 % 1028,5 hPa 0,0 l/m 0,0 km/h (0 Bft) O-NO 67 -12,1 C -9,4 C 0,0 km/h (0 Bft)
27.11.2013 02:35 -10,0 C 86 % 1028,5 hPa 0,0 l/m 0,0 km/h (0 Bft) O-NO 67 -11,9 C -9,9 C 0,0 km/h (0 Bft)
27.11.2013 02:40 -9,8 C 86 % 1028,5 hPa 0,0 l/m 0,0 km/h (0 Bft) NO 45 -11,7 C -10,2 C 0,0 km/h (0 Bft)
27.11.2013 02:45 -9,8 C 86 % 1028,5 hPa 0,0 l/m 0,3 km/h (0 Bft) O 90 -11,7 C -10,3 C 0,0 km/h (0 Bft)
27.11.2013 02:50 -10,2 C 86 % 1028,5 hPa 0,0 l/m 0,3 km/h (0 Bft) NO 45 -12,1 C -10,3 C 0,0 km/h (0 Bft)
27.11.2013 02:55 -9,6 C 86 % 1028,5 hPa 0,0 l/m 0,3 km/h (0 Bft) NO 45 -11,5 C -10,3 C 0,0 km/h (0 Bft)
27.11.2013 03:00 -9,7 C 86 % 1028,5 hPa 0,0 l/m 0,3 km/h (0 Bft) O 90 -11,6 C -10,3 C 1,6 km/h (1 Bft)
27.11.2013 03:05 -10,2 C 86 % 1028,7 hPa 0,0 l/m 0,0 km/h (0 Bft) NO 45 -12,1 C -10,3 C 0,0 km/h (0 Bft)
27.11.2013 03:10 -10,6 C 86 % 1028,7 hPa 0,0 l/m 0,0 km/h (0 Bft) NO 45 -12,5 C -10,5 C 0,0 km/h (0 Bft)
27.11.2013 03:15 -11,2 C 85 % 1028,7 hPa 0,0 l/m 0,0 km/h (0 Bft) O-NO 67 -13,2 C -11,0 C 0,0 km/h (0 Bft)
27.11.2013 03:20 -11,2 C 85 % 1028,7 hPa 0,0 l/m 0,0 km/h (0 Bft) O-SO 112 -13,2 C -11,1 C 0,0 km/h (0 Bft)
27.11.2013 03:25 -11,8 C 84 % 1028,7 hPa 0,0 l/m 0,0 km/h (0 Bft) O-SO 112 -13,9 C -11,2 C 0,0 km/h (0 Bft)
27.11.2013 03:29 -11,7 C 84 % 1028,7 hPa 0,0 l/m 0,0 km/h (0 Bft) O 90 -13,8 C -11,5 C 0,0 km/h (0 Bft)
27.11.2013 03:30 -11,7 C 84 % 1028,7 hPa 0,0 l/m 0,0 km/h (0 Bft) O 90 -13,8 C -11,5 C 0,0 km/h (0 Bft)
27.11.2013 03:35 -10,1 C 85 % 1028,7 hPa 0,0 l/m 0,6 km/h (0 Bft) NO 45 -12,1 C -11,5 C 3,2 km/h (1 Bft)
27.11.2013 03:40 -9,6 C 86 % 1028,7 hPa 0,0 l/m 1,3 km/h (1 Bft) O-SO 112 -11,5 C -11,2 C 4,7 km/h (1 Bft)
27.11.2013 03:45 -10,2 C 86 % 1028,8 hPa 0,0 l/m 1,9 km/h (1 Bft) O 90 -12,1 C -11,3 C 0,0 km/h (0 Bft)
27.11.2013 03:50 -11,1 C 85 % 1028,8 hPa 0,0 l/m 1,6 km/h (1 Bft) O-NO 67 -13,1 C -11,3 C 0,0 km/h (0 Bft)
27.11.2013 03:55 -10,7 C 85 % 1028,8 hPa 0,0 l/m 0,0 km/h (0 Bft) O-SO 112 -12,7 C -11,6 C 0,0 km/h (0 Bft)
27.11.2013 04:00 -11,5 C 85 % 1028,8 hPa 0,0 l/m 0,0 km/h (0 Bft) O 90 -13,5 C -11,7 C 0,0 km/h (0 Bft)
27.11.2013 04:05 -11,1 C 85 % 1028,8 hPa 0,0 l/m 0,0 km/h (0 Bft) O 90 -13,1 C -11,7 C 0,0 km/h (0 Bft)
27.11.2013 04:10 -10,2 C 85 % 1028,8 hPa 0,0 l/m 0,2 km/h (0 Bft) NO 45 -12,2 C -11,6 C 1,6 km/h (1 Bft)
27.11.2013 04:15 -9,9 C 86 % 1028,8 hPa 0,0 l/m 0,3 km/h (0 Bft) O-NO 67 -11,8 C -11,2 C 1,6 km/h (1 Bft)
27.11.2013 04:20 -9,8 C 86 % 1028,8 hPa 0,0 l/m 0,5 km/h (0 Bft) O 90 -11,7 C -11,0 C 2,1 km/h (1 Bft)
27.11.2013 04:25 -9,7 C 86 % 1028,7 hPa 0,0 l/m 0,6 km/h (0 Bft) O-NO 67 -11,6 C -10,6 C 2,4 km/h (1 Bft)
27.11.2013 04:30 -9,9 C 86 % 1028,7 hPa 0,0 l/m 0,5 km/h (0 Bft) O 90 -11,8 C -10,5 C 0,0 km/h (0 Bft)
27.11.2013 04:35 -11,7 C 85 % 1028,7 hPa 0,0 l/m 0,3 km/h (0 Bft) SO 135 -13,7 C -10,8 C 0,0 km/h (0 Bft)
27.11.2013 04:40 -12,4 C 84 % 1028,7 hPa 0,0 l/m 0,0 km/h (0 Bft) SO 135 -14,5 C -11,2 C 0,0 km/h (0 Bft)
27.11.2013 04:45 -12,3 C 83 % 1028,5 hPa 0,0 l/m 0,0 km/h (0 Bft) NO 45 -14,6 C -11,9 C 0,0 km/h (0 Bft)
27.11.2013 04:50 -11,7 C 84 % 1028,5 hPa 0,0 l/m 0,2 km/h (0 Bft) O-NO 67 -13,8 C -11,9 C 1,6 km/h (1 Bft)
27.11.2013 04:55 -11,7 C 84 % 1028,5 hPa 0,0 l/m 0,3 km/h (0 Bft) NO 45 -13,8 C -11,8 C 0,0 km/h (0 Bft)
27.11.2013 05:00 -12,5 C 83 % 1028,5 hPa 0,0 l/m 0,2 km/h (0 Bft) NO 45 -14,8 C -11,9 C 0,0 km/h (0 Bft)
27.11.2013 05:05 -12,7 C 83 % 1028,2 hPa 0,0 l/m 0,0 km/h (0 Bft) NO 45 -15,0 C -12,3 C 0,0 km/h (0 Bft)
27.11.2013 05:10 -12,3 C 83 % 1028,2 hPa 0,0 l/m 0,0 km/h (0 Bft) O 90 -14,6 C -12,5 C 0,0 km/h (0 Bft)
27.11.2013 05:15 -13,1 C 82 % 1028,2 hPa 0,0 l/m 0,0 km/h (0 Bft) NO 45 -15,5 C -12,6 C 0,0 km/h (0 Bft)
27.11.2013 05:20 -13,4 C 81 % 1028,2 hPa 0,0 l/m 0,0 km/h (0 Bft) NO 45 -15,9 C -12,7 C 0,0 km/h (0 Bft)
27.11.2013 05:25 -13,5 C 81 % 1028,6 hPa 0,0 l/m 0,0 km/h (0 Bft) O-SO 112 -16,0 C -13,0 C 0,0 km/h (0 Bft)
27.11.2013 05:30 -13,9 C 80 % 1028,6 hPa 0,0 l/m 0,0 km/h (0 Bft) O-SO 112 -16,6 C -13,2 C 0,0 km/h (0 Bft)
27.11.2013 05:35 -13,1 C 81 % 1028,6 hPa 0,0 l/m 0,0 km/h (0 Bft) O-NO 67 -15,7 C -13,3 C 0,0 km/h (0 Bft)
27.11.2013 05:40 -12,6 C 81 % 1028,6 hPa 0,0 l/m 0,0 km/h (0 Bft) O-NO 67 -15,2 C -13,1 C 0,0 km/h (0 Bft)
27.11.2013 05:45 -13,3 C 81 % 1028,6 hPa 0,0 l/m 0,0 km/h (0 Bft) O-NO 67 -15,8 C -13,1 C 0,0 km/h (0 Bft)
27.11.2013 05:50 -13,0 C 81 % 1028,6 hPa 0,0 l/m 0,0 km/h (0 Bft) O-NO 67 -15,6 C -12,9 C 0,0 km/h (0 Bft)
27.11.2013 05:55 -13,4 C 80 % 1028,6 hPa 0,0 l/m 0,0 km/h (0 Bft) NO 45 -16,1 C -12,8 C 0,0 km/h (0 Bft)
27.11.2013 06:00 -12,7 C 81 % 1028,6 hPa 0,0 l/m 0,0 km/h (0 Bft) O-SO 112 -15,3 C -12,8 C 0,0 km/h (0 Bft)
27.11.2013 06:05 -13,6 C 81 % 1028,5 hPa 0,0 l/m 0,0 km/h (0 Bft) O-SO 112 -16,1 C -12,9 C 0,0 km/h (0 Bft)
27.11.2013 06:10 -13,9 C 80 % 1028,5 hPa 0,0 l/m 0,0 km/h (0 Bft) O-NO 67 -16,6 C -13,2 C 0,0 km/h (0 Bft)
27.11.2013 06:15 -13,4 C 80 % 1028,5 hPa 0,0 l/m 0,0 km/h (0 Bft) NO 45 -16,1 C -13,2 C 0,0 km/h (0 Bft)
27.11.2013 06:20 -13,5 C 80 % 1028,5 hPa 0,0 l/m 0,0 km/h (0 Bft) NO 45 -16,2 C -13,1 C 0,0 km/h (0 Bft)
27.11.2013 06:25 -14,5 C 79 % 1028,4 hPa 0,0 l/m 0,0 km/h (0 Bft) NO 45 -17,3 C -13,4 C 0,0 km/h (0 Bft)
27.11.2013 06:30 -14,6 C 79 % 1028,4 hPa 0,0 l/m 0,0 km/h (0 Bft) NO 45 -17,4 C -13,7 C 0,0 km/h (0 Bft)
27.11.2013 06:35 -14,5 C 79 % 1028,4 hPa 0,0 l/m 0,0 km/h (0 Bft) NO 45 -17,3 C -14,0 C 0,0 km/h (0 Bft)
27.11.2013 06:40 -14,4 C 79 % 1028,4 hPa 0,0 l/m 0,0 km/h (0 Bft) NO 45 -17,2 C -14,0 C 0,0 km/h (0 Bft)
27.11.2013 06:45 -13,8 C 79 % 1028,5 hPa 0,0 l/m 0,0 km/h (0 Bft) O-SO 112 -16,6 C -13,8 C 0,0 km/h (0 Bft)
27.11.2013 06:50 -14,5 C 79 % 1028,5 hPa 0,0 l/m 0,0 km/h (0 Bft) O-SO 112 -17,3 C -13,8 C 0,0 km/h (0 Bft)
27.11.2013 06:55 -14,5 C 79 % 1028,5 hPa 0,0 l/m 0,0 km/h (0 Bft) O-SO 112 -17,3 C -14,1 C 0,0 km/h (0 Bft)
27.11.2013 07:00 -14,4 C 79 % 1028,5 hPa 0,0 l/m 0,0 km/h (0 Bft) O-SO 112 -17,2 C -13,9 C 0,0 km/h (0 Bft)
27.11.2013 07:05 -14,5 C 79 % 1028,6 hPa 0,0 l/m 0,0 km/h (0 Bft) O-SO 112 -17,3 C -14,1 C 0,0 km/h (0 Bft)
27.11.2013 07:10 -13,8 C 79 % 1028,6 hPa 0,0 l/m 0,0 km/h (0 Bft) O 90 -16,6 C -13,9 C 0,0 km/h (0 Bft)
27.11.2013 07:15 -14,1 C 79 % 1028,6 hPa 0,0 l/m 0,0 km/h (0 Bft) O-SO 112 -16,9 C -13,8 C 0,0 km/h (0 Bft)
27.11.2013 07:20 -14,7 C 79 % 1028,6 hPa 0,0 l/m 0,0 km/h (0 Bft) O 90 -17,5 C -13,9 C 0,0 km/h (0 Bft)
27.11.2013 07:25 -14,9 C 78 % 1028,9 hPa 0,0 l/m 0,0 km/h (0 Bft) O 90 -17,9 C -14,1 C 0,0 km/h (0 Bft)
27.11.2013 07:30 -14,8 C 78 % 1028,9 hPa 0,0 l/m 0,0 km/h (0 Bft) O 90 -17,8 C -14,2 C 0,0 km/h (0 Bft)
27.11.2013 07:35 -14,4 C 79 % 1028,9 hPa 0,0 l/m 0,0 km/h (0 Bft) O 90 -17,2 C -14,1 C 0,0 km/h (0 Bft)
27.11.2013 07:40 -13,7 C 79 % 1028,9 hPa 0,0 l/m 0,0 km/h (0 Bft) O 90 -16,5 C -13,8 C 0,0 km/h (0 Bft)
27.11.2013 07:45 -12,3 C 80 % 1029,1 hPa 0,0 l/m 0,0 km/h (0 Bft) O 90 -15,0 C -13,3 C 0,0 km/h (0 Bft)
27.11.2013 07:50 -12,6 C 81 % 1029,1 hPa 0,0 l/m 0,2 km/h (0 Bft) O 90 -15,2 C -13,0 C 0,0 km/h (0 Bft)
27.11.2013 07:55 -13,7 C 80 % 1029,1 hPa 0,0 l/m 0,2 km/h (0 Bft) O-NO 67 -16,4 C -13,0 C 0,0 km/h (0 Bft)
27.11.2013 08:00 -13,7 C 80 % 1029,1 hPa 0,0 l/m 0,0 km/h (0 Bft) O-NO 67 -16,4 C -13,3 C 0,0 km/h (0 Bft)
27.11.2013 08:05 -13,4 C 80 % 1029,3 hPa 0,0 l/m 0,0 km/h (0 Bft) O-NO 67 -16,1 C -13,4 C 0,0 km/h (0 Bft)
27.11.2013 08:10 -13,9 C 80 % 1029,3 hPa 0,0 l/m 0,0 km/h (0 Bft) O-NO 67 -16,6 C -13,4 C 0,0 km/h (0 Bft)
27.11.2013 08:15 -13,7 C 79 % 1029,3 hPa 0,0 l/m 0,0 km/h (0 Bft) O-NO 67 -16,5 C -13,5 C 0,0 km/h (0 Bft)
27.11.2013 08:20 -13,6 C 80 % 1029,3 hPa 0,0 l/m 0,0 km/h (0 Bft) O-NO 67 -16,3 C -13,5 C 0,0 km/h (0 Bft)
27.11.2013 08:23 -13,2 C 80 % 1029,6 hPa 0,0 l/m 0,0 km/h (0 Bft) O-SO 112 -15,9 C -13,3 C 0,0 km/h (0 Bft)
27.11.2013 08:25 -13,2 C 80 % 1029,6 hPa 0,0 l/m 0,0 km/h (0 Bft) O-SO 112 -15,9 C -13,3 C 0,0 km/h (0 Bft)
27.11.2013 08:30 -13,4 C 80 % 1029,6 hPa 0,0 l/m 0,0 km/h (0 Bft) O-SO 112 -16,1 C -13,3 C 0,0 km/h (0 Bft)
27.11.2013 08:35 -14,3 C 79 % 1029,6 hPa 0,0 l/m 0,0 km/h (0 Bft) NO 45 -17,1 C -13,4 C 0,0 km/h (0 Bft)
27.11.2013 08:40 -14,3 C 79 % 1029,6 hPa 0,0 l/m 0,0 km/h (0 Bft) NO 45 -17,1 C -13,6 C 0,0 km/h (0 Bft)
27.11.2013 08:45 -13,8 C 79 % 1029,5 hPa 0,0 l/m 0,0 km/h (0 Bft) NO 45 -16,6 C -13,3 C 0,0 km/h (0 Bft)
27.11.2013 08:50 -13,6 C 79 % 1029,5 hPa 0,0 l/m 0,0 km/h (0 Bft) NO 45 -16,4 C -13,2 C 0,0 km/h (0 Bft)
27.11.2013 08:55 -13,4 C 79 % 1029,5 hPa 0,0 l/m 0,0 km/h (0 Bft) NO 45 -16,2 C -13,1 C 0,0 km/h (0 Bft)
27.11.2013 09:00 -13,7 C 79 % 1029,5 hPa 0,0 l/m 0,0 km/h (0 Bft) NO 45 -16,5 C -13,1 C 0,0 km/h (0 Bft)
27.11.2013 09:05 -13,9 C 79 % 1029,5 hPa 0,0 l/m 0,0 km/h (0 Bft) NO 45 -16,7 C -13,2 C 0,0 km/h (0 Bft)
27.11.2013 09:10 -13,6 C 79 % 1029,5 hPa 0,0 l/m 0,0 km/h (0 Bft) O 90 -16,4 C -13,2 C 0,0 km/h (0 Bft)
27.11.2013 09:15 -12,9 C 79 % 1029,5 hPa 0,0 l/m 0,0 km/h (0 Bft) O-NO 67 -15,8 C -12,9 C 0,0 km/h (0 Bft)
27.11.2013 09:20 -13,2 C 79 % 1029,5 hPa 0,0 l/m 0,0 km/h (0 Bft) NO 45 -16,0 C -12,7 C 0,0 km/h (0 Bft)
27.11.2013 09:25 -13,6 C 79 % 1029,5 hPa 0,0 l/m 0,0 km/h (0 Bft) NO 45 -16,4 C -12,7 C 0,0 km/h (0 Bft)
27.11.2013 09:30 -13,4 C 79 % 1029,5 hPa 0,0 l/m 0,0 km/h (0 Bft) NO 45 -16,2 C -12,3 C 0,0 km/h (0 Bft)
27.11.2013 09:35 -12,7 C 79 % 1029,5 hPa 0,0 l/m 0,0 km/h (0 Bft) O 90 -15,6 C -12,0 C 0,0 km/h (0 Bft)
27.11.2013 09:40 -12,3 C 80 % 1029,5 hPa 0,0 l/m 0,0 km/h (0 Bft) O 90 -15,0 C -11,9 C 0,0 km/h (0 Bft)
27.11.2013 09:45 -12,2 C 80 % 1029,5 hPa 0,0 l/m 0,0 km/h (0 Bft) O 90 -14,9 C -11,7 C 0,0 km/h (0 Bft)
27.11.2013 09:50 -12,5 C 80 % 1029,5 hPa 0,0 l/m 0,0 km/h (0 Bft) O 90 -15,2 C -11,7 C 0,0 km/h (0 Bft)
27.11.2013 09:55 -12,5 C 80 % 1029,5 hPa 0,0 l/m 0,0 km/h (0 Bft) O 90 -15,2 C -11,5 C 0,0 km/h (0 Bft)
27.11.2013 10:00 -12,0 C 81 % 1029,5 hPa 0,0 l/m 0,0 km/h (0 Bft) O 90 -14,6 C -11,4 C 0,0 km/h (0 Bft)
27.11.2013 10:05 -11,6 C 81 % 1029,8 hPa 0,0 l/m 0,0 km/h (0 Bft) O 90 -14,2 C -11,3 C 0,0 km/h (0 Bft)
27.11.2013 10:10 -11,4 C 81 % 1029,8 hPa 0,0 l/m 0,0 km/h (0 Bft) O 90 -14,0 C -11,0 C 0,0 km/h (0 Bft)
27.11.2013 10:15 -11,0 C 82 % 1029,8 hPa 0,0 l/m 0,0 km/h (0 Bft) O 90 -13,5 C -10,8 C 0,0 km/h (0 Bft)
27.11.2013 10:20 -10,7 C 82 % 1029,8 hPa 0,0 l/m 0,0 km/h (0 Bft) O-SO 112 -13,2 C -10,4 C 0,0 km/h (0 Bft)
27.11.2013 10:25 -10,2 C 83 % 1029,5 hPa 0,0 l/m 0,0 km/h (0 Bft) O 90 -12,5 C -10,0 C 0,0 km/h (0 Bft)
27.11.2013 10:30 -10,3 C 83 % 1029,5 hPa 0,0 l/m 0,0 km/h (0 Bft) O-SO 112 -12,6 C -9,6 C 0,0 km/h (0 Bft)
27.11.2013 10:35 -10,5 C 83 % 1029,5 hPa 0,0 l/m 0,0 km/h (0 Bft) O-SO 112 -12,8 C -9,4 C 0,0 km/h (0 Bft)
27.11.2013 10:40 -10,0 C 83 % 1029,5 hPa 0,0 l/m 0,0 km/h (0 Bft) O 90 -12,3 C -9,3 C 0,0 km/h (0 Bft)
27.11.2013 10:45 -9,4 C 84 % 1029,4 hPa 0,0 l/m 0,0 km/h (0 Bft) O 90 -11,6 C -8,7 C 0,0 km/h (0 Bft)
27.11.2013 10:50 -9,0 C 84 % 1029,4 hPa 0,0 l/m 0,0 km/h (0 Bft) O 90 -11,2 C -8,4 C 0,0 km/h (0 Bft)
27.11.2013 10:55 -8,4 C 84 % 1029,4 hPa 0,0 l/m 0,0 km/h (0 Bft) O 90 -10,6 C -7,4 C 0,0 km/h (0 Bft)
27.11.2013 11:00 -8,8 C 84 % 1029,4 hPa 0,0 l/m 0,0 km/h (0 Bft) SO 135 -11,0 C -7,1 C 0,0 km/h (0 Bft)
27.11.2013 11:05 -8,9 C 84 % 1029,8 hPa 0,0 l/m 0,0 km/h (0 Bft) NO 45 -11,1 C -7,2 C 0,0 km/h (0 Bft)
27.11.2013 11:10 -8,6 C 84 % 1029,8 hPa 0,0 l/m 0,0 km/h (0 Bft) O 90 -10,8 C -7,3 C 0,0 km/h (0 Bft)
27.11.2013 11:15 -7,9 C 85 % 1029,8 hPa 0,0 l/m 0,6 km/h (0 Bft) O-SO 112 -10,0 C -7,0 C 1,8 km/h (1 Bft)
27.11.2013 11:20 -7,8 C 85 % 1029,8 hPa 0,0 l/m 1,3 km/h (1 Bft) SO 135 -9,9 C -6,6 C 0,0 km/h (0 Bft)
27.11.2013 11:25 -8,0 C 85 % 1029,8 hPa 0,0 l/m 0,6 km/h (0 Bft) SO 135 -10,1 C -6,6 C 0,0 km/h (0 Bft)
27.11.2013 11:30 -8,1 C 85 % 1029,8 hPa 0,0 l/m 0,0 km/h (0 Bft) O-SO 112 -10,2 C -6,6 C 0,0 km/h (0 Bft)
27.11.2013 11:35 -7,9 C 85 % 1029,8 hPa 0,0 l/m 0,0 km/h (0 Bft) O-NO 67 -10,0 C -6,5 C 0,0 km/h (0 Bft)
27.11.2013 11:40 -7,8 C 85 % 1029,8 hPa 0,0 l/m 0,8 km/h (0 Bft) O-NO 67 -9,9 C -6,6 C 3,5 km/h (1 Bft)
27.11.2013 11:45 -8,0 C 85 % 1029,4 hPa 0,0 l/m 1,8 km/h (1 Bft) SO 135 -10,1 C -6,0 C 0,0 km/h (0 Bft)
27.11.2013 11:50 -8,2 C 85 % 1029,4 hPa 0,0 l/m 1,1 km/h (1 Bft) O-NO 67 -10,3 C -5,5 C 0,0 km/h (0 Bft)
27.11.2013 11:55 -8,0 C 85 % 1029,4 hPa 0,0 l/m 0,0 km/h (0 Bft) SO 135 -10,1 C -5,6 C 0,0 km/h (0 Bft)
27.11.2013 12:00 -7,9 C 86 % 1029,4 hPa 0,0 l/m 0,0 km/h (0 Bft) SO 135 -9,8 C -5,6 C 0,0 km/h (0 Bft)
27.11.2013 12:05 -7,7 C 86 % 1029,2 hPa 0,0 l/m 0,0 km/h (0 Bft) NO 45 -9,6 C -5,8 C 0,0 km/h (0 Bft)
27.11.2013 12:10 -7,5 C 86 % 1029,2 hPa 0,0 l/m 0,3 km/h (0 Bft) N 360 -9,4 C -5,7 C 3,4 km/h (1 Bft)
27.11.2013 12:15 -7,4 C 86 % 1029,2 hPa 0,0 l/m 1,1 km/h (1 Bft) W-NW 292 -9,3 C -5,7 C 6,0 km/h (2 Bft)
27.11.2013 12:20 -7,3 C 86 % 1029,2 hPa 0,0 l/m 1,1 km/h (1 Bft) NO 45 -9,2 C -5,8 C 0,0 km/h (0 Bft)
27.11.2013 12:25 -7,0 C 87 % 1029,2 hPa 0,0 l/m 1,0 km/h (0 Bft) NW 315 -8,8 C -6,0 C 6,1 km/h (2 Bft)
27.11.2013 12:30 -7,1 C 87 % 1029,2 hPa 0,0 l/m 1,1 km/h (1 Bft) N-NW 337 -8,9 C -5,8 C 5,0 km/h (1 Bft)
27.11.2013 12:35 -7,2 C 87 % 1029,2 hPa 0,0 l/m 1,6 km/h (1 Bft) NW 315 -9,0 C -6,0 C 4,8 km/h (1 Bft)
27.11.2013 12:40 -7,1 C 87 % 1029,2 hPa 0,0 l/m 2,6 km/h (1 Bft) N-NW 337 -8,9 C -6,4 C 5,5 km/h (1 Bft)
27.11.2013 12:45 -6,9 C 87 % 1029,2 hPa 0,0 l/m 2,1 km/h (1 Bft) N-NO 22 -8,7 C -5,9 C 7,1 km/h (2 Bft)
27.11.2013 12:50 -6,9 C 87 % 1029,2 hPa 0,0 l/m 1,4 km/h (1 Bft) SO 135 -8,7 C -5,8 C 3,4 km/h (1 Bft)
27.11.2013 12:55 -6,8 C 87 % 1029,2 hPa 0,0 l/m 1,9 km/h (1 Bft) NO 45 -8,6 C -5,4 C 2,6 km/h (1 Bft)
27.11.2013 13:00 -6,8 C 87 % 1029,2 hPa 0,0 l/m 2,6 km/h (1 Bft) N 360 -8,6 C -6,0 C 4,7 km/h (1 Bft)
27.11.2013 13:05 -6,6 C 87 % 1029,1 hPa 0,0 l/m 2,6 km/h (1 Bft) N 360 -8,4 C -5,6 C 2,4 km/h (1 Bft)
27.11.2013 13:10 -6,9 C 87 % 1029,1 hPa 0,0 l/m 2,1 km/h (1 Bft) N 360 -8,7 C -5,2 C 1,8 km/h (1 Bft)
27.11.2013 13:15 -6,8 C 87 % 1029,1 hPa 0,0 l/m 1,6 km/h (1 Bft) N 360 -8,6 C -5,1 C 5,0 km/h (1 Bft)
27.11.2013 13:20 -6,5 C 87 % 1029,1 hPa 0,0 l/m 1,9 km/h (1 Bft) N 360 -8,3 C -5,1 C 2,3 km/h (1 Bft)
27.11.2013 13:25 -6,7 C 87 % 1029,2 hPa 0,0 l/m 1,8 km/h (1 Bft) NO 45 -8,5 C -5,0 C 3,2 km/h (1 Bft)
27.11.2013 13:30 -6,7 C 87 % 1029,2 hPa 0,0 l/m 1,9 km/h (1 Bft) N-NO 22 -8,5 C -4,1 C 6,8 km/h (2 Bft)
27.11.2013 13:35 -6,3 C 88 % 1029,2 hPa 0,0 l/m 2,7 km/h (1 Bft) N-NW 337 -8,0 C -3,3 C 7,4 km/h (2 Bft)
27.11.2013 13:40 -6,3 C 88 % 1029,2 hPa 0,0 l/m 2,9 km/h (1 Bft) W-NW 292 -8,0 C -2,7 C 0,0 km/h (0 Bft)
27.11.2013 13:45 -5,8 C 88 % 1028,9 hPa 0,0 l/m 1,3 km/h (1 Bft) N-NO 22 -7,5 C -0,9 C 1,6 km/h (1 Bft)
27.11.2013 13:50 -5,3 C 88 % 1028,9 hPa 0,0 l/m 1,0 km/h (0 Bft) O-SO 112 -7,0 C -0,1 C 2,6 km/h (1 Bft)
27.11.2013 13:55 -4,4 C 87 % 1028,9 hPa 0,0 l/m 0,8 km/h (0 Bft) NO 45 -6,2 C 0,7 C 0,0 km/h (0 Bft)
27.11.2013 14:00 -4,2 C 86 % 1028,9 hPa 0,0 l/m 0,8 km/h (0 Bft) NO 45 -6,2 C 1,2 C 0,0 km/h (0 Bft)
27.11.2013 14:05 -4,2 C 85 % 1028,8 hPa 0,0 l/m 0,3 km/h (0 Bft) N-NO 22 -6,3 C 1,8 C 0,0 km/h (0 Bft)
27.11.2013 14:10 -4,8 C 84 % 1028,8 hPa 0,0 l/m 0,5 km/h (0 Bft) N-NO 22 -7,1 C 1,9 C 1,8 km/h (1 Bft)
27.11.2013 14:15 -5,4 C 84 % 1028,8 hPa 0,0 l/m 1,3 km/h (1 Bft) N 360 -7,7 C 1,5 C 1,6 km/h (1 Bft)
27.11.2013 14:20 -5,4 C 84 % 1028,8 hPa 0,0 l/m 1,6 km/h (1 Bft) NO 45 -7,7 C 1,3 C 1,6 km/h (1 Bft)
27.11.2013 14:23 -5,6 C 84 % 1028,8 hPa 0,0 l/m 1,1 km/h (1 Bft) NO 45 -7,9 C 1,3 C 1,9 km/h (1 Bft)
27.11.2013 14:25 -5,6 C 84 % 1028,8 hPa 0,0 l/m 1,1 km/h (1 Bft) NO 45 -7,9 C 1,3 C 1,9 km/h (1 Bft)
27.11.2013 14:30 -5,7 C 84 % 1028,8 hPa 0,0 l/m 0,8 km/h (0 Bft) NO 45 -8,0 C 1,5 C 2,9 km/h (1 Bft)
27.11.2013 14:35 -6,0 C 85 % 1028,8 hPa 0,0 l/m 1,0 km/h (0 Bft) NO 45 -8,1 C 0,8 C 0,0 km/h (0 Bft)
27.11.2013 14:40 -5,9 C 85 % 1028,8 hPa 0,0 l/m 1,3 km/h (1 Bft) NO 45 -8,0 C -0,1 C 3,2 km/h (1 Bft)
27.11.2013 14:45 -6,0 C 85 % 1028,6 hPa 0,0 l/m 1,1 km/h (1 Bft) N-NW 337 -8,1 C -1,7 C 0,0 km/h (0 Bft)
27.11.2013 14:50 -6,2 C 85 % 1028,6 hPa 0,0 l/m 2,1 km/h (1 Bft) N 360 -8,3 C -2,9 C 2,6 km/h (1 Bft)
27.11.2013 14:55 -6,4 C 85 % 1028,6 hPa 0,0 l/m 2,7 km/h (1 Bft) N-NW 337 -8,5 C -4,2 C 5,8 km/h (2 Bft)
27.11.2013 15:00 -6,5 C 85 % 1028,6 hPa 0,0 l/m 2,6 km/h (1 Bft) N-NW 337 -8,6 C -3,9 C 0,0 km/h (0 Bft)
27.11.2013 15:05 -6,5 C 86 % 1028,8 hPa 0,0 l/m 2,3 km/h (1 Bft) N-NO 22 -8,4 C -4,1 C 2,4 km/h (1 Bft)
27.11.2013 15:10 -6,4 C 86 % 1028,8 hPa 0,0 l/m 1,9 km/h (1 Bft) NO 45 -8,3 C -4,4 C 2,4 km/h (1 Bft)
27.11.2013 15:15 -6,3 C 86 % 1028,8 hPa 0,0 l/m 1,9 km/h (1 Bft) NO 45 -8,2 C -5,1 C 1,9 km/h (1 Bft)
27.11.2013 15:20 -6,3 C 86 % 1028,8 hPa 0,0 l/m 2,1 km/h (1 Bft) NO 45 -8,2 C -5,7 C 2,7 km/h (1 Bft)
27.11.2013 15:25 -6,4 C 86 % 1028,9 hPa 0,0 l/m 2,4 km/h (1 Bft) O-NO 67 -8,3 C -6,3 C 3,7 km/h (1 Bft)
27.11.2013 15:30 -6,6 C 86 % 1028,9 hPa 0,0 l/m 2,4 km/h (1 Bft) NO 45 -8,5 C -6,6 C 2,4 km/h (1 Bft)
27.11.2013 15:35 -6,7 C 87 % 1028,9 hPa 0,0 l/m 2,3 km/h (1 Bft) N-NW 337 -8,5 C -6,6 C 3,9 km/h (1 Bft)
27.11.2013 15:40 -6,8 C 87 % 1028,9 hPa 0,0 l/m 2,3 km/h (1 Bft) NO 45 -8,6 C -6,6 C 3,9 km/h (1 Bft)
27.11.2013 15:45 -7,0 C 87 % 1028,7 hPa 0,0 l/m 2,4 km/h (1 Bft) O-NO 67 -8,8 C -7,1 C 2,7 km/h (1 Bft)
27.11.2013 15:50 -7,3 C 86 % 1028,7 hPa 0,0 l/m 2,4 km/h (1 Bft) NO 45 -9,2 C -7,1 C 4,7 km/h (1 Bft)
27.11.2013 15:55 -7,1 C 86 % 1028,7 hPa 0,0 l/m 2,1 km/h (1 Bft) NO 45 -9,0 C -6,9 C 3,9 km/h (1 Bft)
27.11.2013 16:00 -7,2 C 86 % 1028,7 hPa 0,0 l/m 1,8 km/h (1 Bft) NO 45 -9,1 C -6,8 C 2,9 km/h (1 Bft)
27.11.2013 16:05 -7,1 C 87 % 1028,7 hPa 0,0 l/m 1,9 km/h (1 Bft) NO 45 -8,9 C -7,0 C 2,1 km/h (1 Bft)
27.11.2013 16:10 -7,7 C 86 % 1028,7 hPa 0,0 l/m 1,6 km/h (1 Bft) N-NO 22 -9,6 C -7,2 C 0,0 km/h (0 Bft)
27.11.2013 16:15 -7,6 C 86 % 1028,7 hPa 0,0 l/m 1,0 km/h (0 Bft) NO 45 -9,5 C -7,5 C 0,0 km/h (0 Bft)
27.11.2013 16:20 -7,5 C 86 % 1028,7 hPa 0,0 l/m 1,3 km/h (1 Bft) NO 45 -9,4 C -7,6 C 3,1 km/h (1 Bft)
27.11.2013 16:25 -7,5 C 86 % 1028,9 hPa 0,0 l/m 2,3 km/h (1 Bft) NO 45 -9,4 C -8,2 C 5,0 km/h (1 Bft)
27.11.2013 16:30 -7,6 C 86 % 1028,9 hPa 0,0 l/m 3,1 km/h (1 Bft) NO 45 -9,5 C -9,1 C 4,0 km/h (1 Bft)
27.11.2013 16:35 -7,7 C 86 % 1028,9 hPa 0,0 l/m 3,4 km/h (1 Bft) O 90 -9,6 C -9,3 C 3,7 km/h (1 Bft)
27.11.2013 16:40 -7,8 C 86 % 1028,9 hPa 0,0 l/m 3,4 km/h (1 Bft) O-NO 67 -9,7 C -9,4 C 3,2 km/h (1 Bft)
27.11.2013 16:45 -8,0 C 86 % 1028,9 hPa 0,0 l/m 3,2 km/h (1 Bft) O 90 -9,9 C -9,6 C 4,8 km/h (1 Bft)
27.11.2013 16:50 -8,1 C 86 % 1028,9 hPa 0,0 l/m 3,2 km/h (1 Bft) O-NO 67 -10,0 C -9,7 C 3,9 km/h (1 Bft)
27.11.2013 16:55 -9,2 C 86 % 1028,9 hPa 0,0 l/m 2,1 km/h (1 Bft) O-SO 112 -11,1 C -8,9 C 0,0 km/h (0 Bft)
27.11.2013 17:00 -9,8 C 85 % 1028,9 hPa 0,0 l/m 1,1 km/h (1 Bft) O-NO 67 -11,8 C -9,2 C 3,5 km/h (1 Bft)
27.11.2013 17:05 -8,8 C 85 % 1029,2 hPa 0,0 l/m 1,9 km/h (1 Bft) O 90 -10,9 C -9,5 C 4,0 km/h (1 Bft)
27.11.2013 17:10 -8,5 C 86 % 1029,2 hPa 0,0 l/m 3,2 km/h (1 Bft) O-NO 67 -10,4 C -10,7 C 3,9 km/h (1 Bft)
27.11.2013 17:15 -8,4 C 86 % 1029,2 hPa 0,0 l/m 3,2 km/h (1 Bft) NO 45 -10,3 C -10,5 C 1,9 km/h (1 Bft)
27.11.2013 17:20 -8,6 C 86 % 1029,2 hPa 0,0 l/m 1,9 km/h (1 Bft) NO 45 -10,5 C -9,3 C 0,0 km/h (0 Bft)
27.11.2013 17:25 -9,6 C 85 % 1029,1 hPa 0,0 l/m 0,5 km/h (0 Bft) NO 45 -11,6 C -9,5 C 0,0 km/h (0 Bft)
27.11.2013 17:30 -10,2 C 84 % 1029,1 hPa 0,0 l/m 0,0 km/h (0 Bft) NO 45 -12,4 C -9,8 C 0,0 km/h (0 Bft)
27.11.2013 17:35 -10,2 C 84 % 1029,1 hPa 0,0 l/m 0,0 km/h (0 Bft) NO 45 -12,4 C -10,1 C 0,0 km/h (0 Bft)
27.11.2013 17:40 -10,3 C 84 % 1029,1 hPa 0,0 l/m 0,0 km/h (0 Bft) NO 45 -12,5 C -10,3 C 0,0 km/h (0 Bft)
27.11.2013 17:45 -10,8 C 83 % 1029,1 hPa 0,0 l/m 0,0 km/h (0 Bft) NO 45 -13,1 C -10,7 C 0,0 km/h (0 Bft)
27.11.2013 17:50 -11,2 C 83 % 1029,1 hPa 0,0 l/m 0,0 km/h (0 Bft) NO 45 -13,5 C -10,8 C 0,0 km/h (0 Bft)
27.11.2013 17:55 -11,4 C 82 % 1029,1 hPa 0,0 l/m 0,0 km/h (0 Bft) NO 45 -13,8 C -10,7 C 0,0 km/h (0 Bft)
27.11.2013 18:00 -11,6 C 82 % 1029,1 hPa 0,0 l/m 0,0 km/h (0 Bft) NO 45 -14,0 C -10,5 C 0,0 km/h (0 Bft)
27.11.2013 18:05 -11,4 C 82 % 1029,1 hPa 0,0 l/m 0,2 km/h (0 Bft) O 90 -13,8 C -10,1 C 2,7 km/h (1 Bft)
27.11.2013 18:10 -9,6 C 84 % 1029,1 hPa 0,0 l/m 1,1 km/h (1 Bft) NO 45 -11,8 C -9,9 C 1,9 km/h (1 Bft)
27.11.2013 18:15 -8,7 C 85 % 1029,1 hPa 0,0 l/m 2,6 km/h (1 Bft) O-NO 67 -10,8 C -10,2 C 1,9 km/h (1 Bft)
27.11.2013 18:20 -8,8 C 85 % 1029,1 hPa 0,0 l/m 1,6 km/h (1 Bft) N-NO 22 -10,9 C -9,0 C 1,9 km/h (1 Bft)
27.11.2013 18:25 -10,4 C 84 % 1029,2 hPa 0,0 l/m 0,5 km/h (0 Bft) N-NO 22 -12,6 C -9,1 C 0,0 km/h (0 Bft)
27.11.2013 18:30 -11,6 C 83 % 1029,2 hPa 0,0 l/m 0,2 km/h (0 Bft) O 90 -13,9 C -9,8 C 0,0 km/h (0 Bft)
27.11.2013 18:35 -9,6 C 84 % 1029,2 hPa 0,0 l/m 1,6 km/h (1 Bft) O 90 -11,8 C -9,7 C 3,2 km/h (1 Bft)
27.11.2013 18:40 -9,0 C 85 % 1029,2 hPa 0,0 l/m 2,1 km/h (1 Bft) N-NO 22 -11,0 C -9,6 C 2,7 km/h (1 Bft)
27.11.2013 18:45 -9,1 C 85 % 1028,8 hPa 0,0 l/m 1,6 km/h (1 Bft) O-NO 67 -11,1 C -9,1 C 0,0 km/h (0 Bft)
27.11.2013 18:50 -9,8 C 85 % 1028,8 hPa 0,0 l/m 0,6 km/h (0 Bft) N 360 -11,8 C -9,3 C 0,0 km/h (0 Bft)
27.11.2013 18:55 -11,4 C 83 % 1028,8 hPa 0,0 l/m 0,2 km/h (0 Bft) O-NO 67 -13,7 C -10,1 C 2,4 km/h (1 Bft)
27.11.2013 19:00 -11,7 C 83 % 1028,8 hPa 0,0 l/m 0,2 km/h (0 Bft) O-NO 67 -14,0 C -10,5 C 0,0 km/h (0 Bft)
27.11.2013 19:05 -11,5 C 82 % 1028,9 hPa 0,0 l/m 0,2 km/h (0 Bft) N 360 -13,9 C -10,7 C 0,0 km/h (0 Bft)
27.11.2013 19:10 -11,6 C 82 % 1028,9 hPa 0,0 l/m 0,2 km/h (0 Bft) N 360 -14,0 C -11,0 C 1,6 km/h (1 Bft)
27.11.2013 19:15 -11,3 C 83 % 1028,9 hPa 0,0 l/m 0,3 km/h (0 Bft) N 360 -13,6 C -11,0 C 0,0 km/h (0 Bft)
27.11.2013 19:20 -10,8 C 83 % 1028,9 hPa 0,0 l/m 1,1 km/h (1 Bft) N-NO 22 -13,1 C -10,8 C 2,7 km/h (1 Bft)
27.11.2013 19:24 -10,6 C 83 % 1028,9 hPa 0,0 l/m 1,3 km/h (1 Bft) O-NO 67 -12,9 C -10,5 C 0,0 km/h (0 Bft)
27.11.2013 19:25 -10,6 C 83 % 1028,9 hPa 0,0 l/m 1,3 km/h (1 Bft) O-NO 67 -12,9 C -10,5 C 0,0 km/h (0 Bft)
27.11.2013 19:30 -11,2 C 83 % 1028,9 hPa 0,0 l/m 0,8 km/h (0 Bft) N 360 -13,5 C -10,6 C 0,0 km/h (0 Bft)
27.11.2013 19:35 -11,8 C 82 % 1028,9 hPa 0,0 l/m 0,0 km/h (0 Bft) N 360 -14,2 C -11,1 C 0,0 km/h (0 Bft)
27.11.2013 19:40 -12,2 C 82 % 1028,9 hPa 0,0 l/m 0,0 km/h (0 Bft) O-NO 67 -14,6 C -11,5 C 0,0 km/h (0 Bft)
27.11.2013 19:45 -12,0 C 82 % 1029,1 hPa 0,0 l/m 0,0 km/h (0 Bft) NO 45 -14,4 C -11,6 C 0,0 km/h (0 Bft)
27.11.2013 19:50 -11,7 C 82 % 1029,1 hPa 0,0 l/m 0,0 km/h (0 Bft) O 90 -14,1 C -11,7 C 2,1 km/h (1 Bft)
27.11.2013 19:55 -11,2 C 82 % 1029,1 hPa 0,0 l/m 0,3 km/h (0 Bft) O 90 -13,6 C -11,4 C 2,1 km/h (1 Bft)
27.11.2013 20:00 -11,0 C 83 % 1029,1 hPa 0,0 l/m 0,3 km/h (0 Bft) O 90 -13,3 C -11,3 C 0,0 km/h (0 Bft)
27.11.2013 20:05 -12,5 C 81 % 1029,0 hPa 0,0 l/m 0,3 km/h (0 Bft) N 360 -15,1 C -11,4 C 0,0 km/h (0 Bft)
27.11.2013 20:10 -12,5 C 81 % 1029,0 hPa 0,0 l/m 0,2 km/h (0 Bft) N 360 -15,1 C -12,1 C 0,0 km/h (0 Bft)
27.11.2013 20:15 -12,9 C 80 % 1029,0 hPa 0,0 l/m 0,0 km/h (0 Bft) N-NO 22 -15,6 C -12,3 C 0,0 km/h (0 Bft)
27.11.2013 20:20 -12,8 C 80 % 1029,0 hPa 0,0 l/m 0,0 km/h (0 Bft) NO 45 -15,5 C -12,3 C 0,0 km/h (0 Bft)
27.11.2013 20:25 -12,1 C 81 % 1029,2 hPa 0,0 l/m 0,3 km/h (0 Bft) N-NO 22 -14,7 C -12,2 C 0,0 km/h (0 Bft)
27.11.2013 20:30 -12,6 C 81 % 1029,2 hPa 0,0 l/m 0,3 km/h (0 Bft) N-NO 22 -15,2 C -12,2 C 0,0 km/h (0 Bft)
27.11.2013 20:35 -13,0 C 80 % 1029,2 hPa 0,0 l/m 0,0 km/h (0 Bft) O 90 -15,7 C -12,3 C 0,0 km/h (0 Bft)
27.11.2013 20:40 -12,2 C 81 % 1029,2 hPa 0,0 l/m 0,0 km/h (0 Bft) NO 45 -14,8 C -12,5 C 0,0 km/h (0 Bft)
27.11.2013 20:45 -12,1 C 81 % 1029,2 hPa 0,0 l/m 0,0 km/h (0 Bft) O 90 -14,7 C -12,1 C 0,0 km/h (0 Bft)
27.11.2013 20:50 -12,6 C 80 % 1029,2 hPa 0,0 l/m 0,0 km/h (0 Bft) O 90 -15,3 C -12,1 C 0,0 km/h (0 Bft)
27.11.2013 20:55 -12,2 C 81 % 1029,2 hPa 0,0 l/m 0,0 km/h (0 Bft) NO 45 -14,8 C -12,4 C 0,0 km/h (0 Bft)
27.11.2013 21:00 -12,9 C 80 % 1029,2 hPa 0,0 l/m 0,0 km/h (0 Bft) NO 45 -15,6 C -12,4 C 0,0 km/h (0 Bft)
27.11.2013 21:05 -13,3 C 80 % 1029,3 hPa 0,0 l/m 0,0 km/h (0 Bft) NO 45 -16,0 C -12,8 C 0,0 km/h (0 Bft)
27.11.2013 21:10 -13,1 C 80 % 1029,3 hPa 0,0 l/m 0,0 km/h (0 Bft) NO 45 -15,8 C -12,9 C 0,0 km/h (0 Bft)
27.11.2013 21:15 -12,7 C 80 % 1029,3 hPa 0,0 l/m 0,0 km/h (0 Bft) O-NO 67 -15,4 C -12,7 C 0,0 km/h (0 Bft)
27.11.2013 21:20 -12,8 C 80 % 1029,3 hPa 0,0 l/m 0,0 km/h (0 Bft) NO 45 -15,5 C -12,6 C 0,0 km/h (0 Bft)
27.11.2013 21:25 -13,0 C 80 % 1029,2 hPa 0,0 l/m 0,0 km/h (0 Bft) N-NW 337 -15,7 C -12,2 C 0,0 km/h (0 Bft)
27.11.2013 21:30 -13,1 C 80 % 1029,2 hPa 0,0 l/m 0,0 km/h (0 Bft) N-NW 337 -15,8 C -12,4 C 0,0 km/h (0 Bft)
27.11.2013 21:35 -12,7 C 80 % 1029,2 hPa 0,0 l/m 0,0 km/h (0 Bft) N-NW 337 -15,4 C -12,7 C 0,0 km/h (0 Bft)
27.11.2013 21:40 -13,0 C 80 % 1029,2 hPa 0,0 l/m 0,0 km/h (0 Bft) N-NW 337 -15,7 C -12,8 C 0,0 km/h (0 Bft)
27.11.2013 21:45 -12,8 C 80 % 1029,5 hPa 0,0 l/m 0,0 km/h (0 Bft) N-NW 337 -15,5 C -13,1 C 0,0 km/h (0 Bft)
27.11.2013 21:50 -12,8 C 80 % 1029,5 hPa 0,0 l/m 0,0 km/h (0 Bft) N-NW 337 -15,5 C -12,9 C 0,0 km/h (0 Bft)
27.11.2013 21:55 -13,4 C 79 % 1029,5 hPa 0,0 l/m 0,0 km/h (0 Bft) N-NW 337 -16,2 C -13,1 C 0,0 km/h (0 Bft)
27.11.2013 22:00 -13,6 C 79 % 1029,5 hPa 0,0 l/m 0,0 km/h (0 Bft) N-NW 337 -16,4 C -13,3 C 0,0 km/h (0 Bft)
27.11.2013 22:05 -13,4 C 79 % 1029,4 hPa 0,0 l/m 0,0 km/h (0 Bft) N-NW 337 -16,2 C -13,2 C 0,0 km/h (0 Bft)
27.11.2013 22:10 -13,5 C 79 % 1029,4 hPa 0,0 l/m 0,0 km/h (0 Bft) N-NW 337 -16,3 C -13,2 C 0,0 km/h (0 Bft)
27.11.2013 22:15 -13,6 C 79 % 1029,4 hPa 0,0 l/m 0,0 km/h (0 Bft) N-NO 22 -16,4 C -13,3 C 0,0 km/h (0 Bft)
27.11.2013 22:20 -13,5 C 79 % 1029,4 hPa 0,0 l/m 0,0 km/h (0 Bft) N-NO 22 -16,3 C -13,3 C 0,0 km/h (0 Bft)
27.11.2013 22:25 -13,7 C 79 % 1029,4 hPa 0,0 l/m 0,0 km/h (0 Bft) N-NO 22 -16,5 C -13,3 C 0,0 km/h (0 Bft)
27.11.2013 22:30 -13,9 C 79 % 1029,4 hPa 0,0 l/m 0,0 km/h (0 Bft) N-NW 337 -16,7 C -13,4 C 0,0 km/h (0 Bft)
27.11.2013 22:35 -14,1 C 79 % 1029,4 hPa 0,0 l/m 0,0 km/h (0 Bft) N-NW 337 -16,9 C -13,4 C 0,0 km/h (0 Bft)
27.11.2013 22:40 -13,9 C 79 % 1029,4 hPa 0,0 l/m 0,0 km/h (0 Bft) N 360 -16,7 C -13,6 C 0,0 km/h (0 Bft)
27.11.2013 22:45 -13,7 C 79 % 1029,3 hPa 0,0 l/m 0,0 km/h (0 Bft) N-NO 22 -16,5 C -13,4 C 0,0 km/h (0 Bft)
27.11.2013 22:50 -12,7 C 79 % 1029,3 hPa 0,0 l/m 0,0 km/h (0 Bft) NO 45 -15,6 C -13,2 C 0,0 km/h (0 Bft)
27.11.2013 22:55 -13,4 C 79 % 1029,3 hPa 0,0 l/m 0,0 km/h (0 Bft) NO 45 -16,2 C -13,1 C 0,0 km/h (0 Bft)
27.11.2013 23:00 -13,7 C 79 % 1029,3 hPa 0,0 l/m 0,0 km/h (0 Bft) NO 45 -16,5 C -13,2 C 0,0 km/h (0 Bft)
27.11.2013 23:05 -14,3 C 79 % 1029,2 hPa 0,0 l/m 0,0 km/h (0 Bft) NO 45 -17,1 C -13,6 C 0,0 km/h (0 Bft)
27.11.2013 23:10 -14,2 C 79 % 1029,2 hPa 0,0 l/m 0,0 km/h (0 Bft) NO 45 -17,0 C -13,7 C 0,0 km/h (0 Bft)
27.11.2013 23:15 -14,1 C 78 % 1029,2 hPa 0,0 l/m 0,0 km/h (0 Bft) NO 45 -17,1 C -13,8 C 0,0 km/h (0 Bft)
27.11.2013 23:20 -14,2 C 78 % 1029,2 hPa 0,0 l/m 0,0 km/h (0 Bft) NO 45 -17,2 C -13,8 C 0,0 km/h (0 Bft)
27.11.2013 23:25 -14,0 C 78 % 1029,6 hPa 0,0 l/m 0,0 km/h (0 Bft) NO 45 -17,0 C -13,8 C 0,0 km/h (0 Bft)
27.11.2013 23:30 -14,2 C 78 % 1029,6 hPa 0,0 l/m 0,0 km/h (0 Bft) NO 45 -17,2 C -13,8 C 0,0 km/h (0 Bft)
27.11.2013 23:35 -14,4 C 78 % 1029,6 hPa 0,0 l/m 0,0 km/h (0 Bft) NO 45 -17,4 C -13,9 C 0,0 km/h (0 Bft)
27.11.2013 23:40 -14,5 C 78 % 1029,6 hPa 0,0 l/m 0,0 km/h (0 Bft) NO 45 -17,5 C -13,9 C 0,0 km/h (0 Bft)
27.11.2013 23:45 -13,6 C 79 % 1029,4 hPa 0,0 l/m 0,2 km/h (0 Bft) O 90 -16,4 C -13,9 C 3,9 km/h (1 Bft)
27.11.2013 23:50 -12,5 C 79 % 1029,4 hPa 0,0 l/m 1,4 km/h (1 Bft) O-SO 112 -15,4 C -13,4 C 3,5 km/h (1 Bft)
27.11.2013 23:55 -13,6 C 79 % 1029,4 hPa 0,0 l/m 1,4 km/h (1 Bft) N 360 -16,4 C -13,2 C 0,0 km/h (0 Bft)
_ Min-Zeit 07:25 23:40 05:20 - 23:40 - - 07:25 07:30 23:55
Minimum _ -14,9 C 78 % 1028,2 hPa - 0,0 km/h (0 Bft) - - -17,9 C -14,2 C 0,0 km/h (0 Bft)
_ Max-Zeit 14:05 00:40 11:40 23:55 16:40 - - 14:00 14:10 13:35
Maximum _ -4,2 C 89 % 1029,8 hPa 0,0 l/m 3,4 km/h
O-NO (1 Bft)
- - -6,2 C 1,9 C 7,4 km/h
N-NW (2 Bft)
Durchschnitt _ -10,4 C 83 % 1029,0 hPa #0,0 l/m 0,6 km/h (0 Bft) NO - -12,7 C -9,8 C 0,9 km/h (0 Bft)